GW3755 Weather Reports


time (UTC)temp
C
wind
direction
speed
KPH
gust
KPH
rain 1hr
cm
rain 24hr
cm
rain mn
cm
humidity
%
barometer
mb
20260509024605 15 0 0.0 0.0 0.00 0.00 0.00 82 1015.7
20260509023116 15 0 0.0 0.0 0.00 0.00 0.00 80 1015.6
20260509021558 15 0 0.0 0.0 0.00 0.00 0.00 81 1015.7
20260509014557 16 0 0.0 1.6 0.00 0.00 0.00 79 1015.7
20260509013107 16 0 0.0 1.6 0.00 0.00 0.00 78 1015.6
20260509011600 16 0 0.0 1.6 0.00 0.00 0.00 77 1015.4
20260509010100 16 0 0.0 3.2 0.00 0.00 0.00 75 1015.1
20260509004600 16 0 0.0 1.6 0.00 0.00 0.00 74 1015.2
20260509003110 17 185 0.0 1.6 0.00 0.00 0.00 73 1015.2
20260509001603 17 0 0.0 1.6 0.00 0.00 0.00 71 1015.2
20260509000129 17 162 0.0 6.4 0.00 0.00 0.00 70 1015.0
20260508234604 17 0 0.0 3.2 0.00 0.00 0.00 68 1014.8
20260508233119 18 0 0.0 3.2 0.00 0.00 0.00 67 1015.0
20260508231600 18 170 0.0 4.8 0.00 0.00 0.00 66 1015.0
20260508230106 18 0 0.0 4.8 0.00 0.00 0.00 65 1014.8
20260508224559 18 167 0.0 4.8 0.00 0.00 0.00 63 1015.0
20260508223101 19 165 1.6 8.0 0.00 0.00 0.00 62 1015.0
20260508221604 19 182 1.6 8.0 0.00 0.00 0.00 61 1014.9
20260508220108 20 269 1.6 6.4 0.00 0.00 0.00 59 1014.9
20260508214558 20 140 1.6 4.8 0.00 0.00 0.00 57 1014.7
20260508213056 20 196 1.6 9.7 0.00 0.00 0.00 57 1015.0
20260508211559 20 178 1.6 11.3 0.00 0.00 0.00 55 1015.1
20260508210057 21 0 0.0 8.0 0.00 0.00 0.00 56 1014.9
20260508204601 21 217 1.6 9.7 0.00 0.00 0.00 53 1015.1
20260508203058 21 172 3.2 12.9 0.00 0.00 0.00 54 1015.0
20260508201556 21 159 3.2 12.9 0.00 0.00 0.00 53 1015.4
20260508200112 21 220 0.0 9.7 0.00 0.00 0.00 57 1015.5
20260508194558 21 190 1.6 8.0 0.00 0.00 0.00 55 1015.8
20260508193143 21 167 0.0 9.7 0.00 0.00 0.00 54 1015.9
20260508191603 21 330 1.6 4.8 0.00 0.00 0.00 60 1016.2
20260508190059 21 249 3.2 9.7 0.00 0.00 0.00 54 1016.3
20260508184606 21 213 0.0 4.8 0.00 0.00 0.00 52 1016.5
20260508183126 21 69 0.0 6.4 0.00 0.00 0.00 54 1017.0
20260508181606 20 148 1.6 8.0 0.00 0.00 0.00 57 1017.0
20260508180100 21 169 3.2 9.7 0.00 0.00 0.00 56 1017.3
20260508174603 20 0 1.6 8.0 0.00 0.00 0.00 59 1017.2
20260508173059 19 0 1.6 6.4 0.00 0.00 0.00 56 1017.5
20260508171600 19 64 1.6 4.8 0.00 0.00 0.00 57 1017.6
20260508170100 19 217 1.6 6.4 0.00 0.00 0.00 57 1017.8
20260508164601 21 189 1.6 8.0 0.00 0.00 0.00 54 1018.1
20260508163104 20 0 0.0 4.8 0.00 0.00 0.00 56 1018.3
20260508161559 19 78 1.6 8.0 0.00 0.00 0.00 53 1018.4
20260508160058 20 0 0.0 6.4 0.00 0.00 0.00 55 1018.6
20260508154623 20 180 0.0 6.4 0.00 0.00 0.00 65 1018.9
20260508153058 18 0 1.6 8.0 0.00 0.00 0.00 66 1019.0
20260508151609 18 360 1.6 9.7 0.00 0.00 0.00 56 1019.0
20260508150059 18 219 1.6 9.7 0.00 0.00 0.00 58 1019.0
20260508144609 19 126 0.0 9.7 0.00 0.00 0.00 60 1018.8
20260508143106 18 131 3.2 8.0 0.00 0.00 0.00 56 1018.9
20260508141606 18 0 0.0 6.4 0.00 0.00 0.00 58 1019.0
20260508140056 17 110 1.6 8.0 0.00 0.00 0.00 62 1019.2
20260508134622 17 59 1.6 4.8 0.00 0.23 0.00 63 1019.3
20260508133102 17 182 0.0 4.8 0.00 0.23 0.00 67 1019.3
20260508131603 16 86 1.6 6.4 0.00 0.23 0.00 69 1019.0
20260508130100 15 82 1.6 6.4 0.00 0.23 0.00 71 1018.8
20260508124602 14 135 1.6 4.8 0.00 0.25 0.00 75 1018.7
20260508123058 13 55 0.0 6.4 0.00 0.25 0.00 77 1018.7
20260508121600 13 0 0.0 4.8 0.00 0.25 0.00 79 1018.5
20260508120058 13 0 0.0 4.8 0.00 0.25 0.00 79 1018.3
20260508114604 12 313 0.0 4.8 0.00 0.99 0.00 84 1018.2
20260508113104 11 0 0.0 3.2 0.00 0.99 0.00 85 1018.0
20260508111600 11 0 0.0 3.2 0.00 0.99 0.00 85 1017.6
20260508110111 11 0 0.0 3.2 0.00 0.99 0.00 85 1017.2
20260508104557 11 0 0.0 3.2 0.00 1.32 0.00 85 1017.0
20260508103100 11 0 0.0 4.8 0.00 1.32 0.00 85 1016.8
20260508101600 11 345 0.0 3.2 0.00 1.32 0.00 84 1016.5
20260508100112 11 327 0.0 4.8 0.00 1.32 0.00 84 1016.3
20260508094608 11 0 0.0 3.2 0.00 1.32 0.00 84 1016.2
20260508093059 11 0 0.0 3.2 0.00 1.32 0.00 85 1016.1
20260508091606 11 0 0.0 0.0 0.00 1.32 0.00 86 1016.0
20260508090114 11 0 0.0 1.6 0.00 1.32 0.00 84 1015.9
20260508084557 11 0 0.0 1.6 0.00 2.31 0.00 81 1015.9
20260508083059 12 0 0.0 1.6 0.00 2.31 0.00 80 1015.8
20260508081608 12 0 0.0 4.8 0.00 2.31 0.00 80 1015.9
20260508080100 11 330 0.0 3.2 0.00 2.31 0.00 84 1015.8
20260508074600 11 0 0.0 0.0 0.00 2.64 0.00 85 1015.8
20260508073111 11 0 0.0 0.0 0.00 2.64 0.00 85 1015.8
20260508071606 11 0 0.0 0.0 0.00 2.64 0.00 87 1015.8
20260508064620 11 0 0.0 0.0 0.00 3.33 0.00 83 1015.5
20260508063110 11 0 0.0 0.0 0.00 3.33 0.00 81 1015.4
20260508061608 12 0 0.0 1.6 0.00 3.33 0.00 76 1015.4
20260508060111 13 0 0.0 1.6 0.00 3.33 0.00 73 1015.6
20260508054557 13 0 0.0 1.6 0.00 4.95 0.00 73 1015.6
20260508053100 13 330 0.0 4.8 0.00 4.95 0.00 72 1015.6
20260508051617 13 0 0.0 1.6 0.00 4.95 0.00 73 1015.4
20260508050057 13 0 0.0 3.2 0.00 4.95 0.00 71 1015.4
20260508044600 13 0 0.0 3.2 0.00 5.54 0.00 70 1015.3
20260508043108 14 339 0.0 6.4 0.00 5.54 0.00 69 1015.0
20260508041605 14 49 0.0 1.6 0.00 5.54 0.00 69 1014.9
20260508040101 14 34 0.0 4.8 0.00 5.54 0.00 69 1015.0
20260508034558 15 0 0.0 3.2 0.00 5.54 5.54 68 1015.0
20260508033100 15 0 0.0 3.2 0.00 5.54 5.54 67 1015.0
20260508031600 15 0 0.0 3.2 0.00 5.54 5.54 66 1015.0
20260508030104 15 0 0.0 3.2 0.00 5.54 5.54 66 1014.7